Location: ??????????
(48.5701°N, 37.7703°E)
Time: 19:34:11
(UTC+00:00)

Cosmos 1536 - Pass Details

Date: 14 July 2020
Orbit: 539 x 560 km, 82.5° (Epoch: 11 August)

Event Time Altitude Azimuth Distance (km) Brightness Sun altitude
Exits shadow 00:27:11 14° 214° (SW) 1,614 4.5 -10.0°
Maximum altitude 00:30:28 44° 284° (WNW) 783 3.4 -9.6°
Drops below altitude 10° 00:34:22 10° 358° (N) 1,849 6.2 -9.2°
Sets 00:36:38 0° 5° (N) 2,745 7.3 -8.9°
